Preview of NWS' New Version of Forecast
This preview is not operational and should not be used for support decisions.

Regional Weather Roundup (RWR)

Issued by National Weather Service (NWS)

                            
000
ASUS43 KMKX 220610
RWRWI 

WISCONSIN REGIONAL WEATHER ROUNDUP
NATIONAL WEATHER SERVICE MILWAUKEE/SULLIVAN WI
100 AM CDT MON APR 22 2019

NOTE: "FAIR" INDICATES FEW OR NO CLOUDS BELOW 12,000 FEET WITH NO
SIGNIFICANT WEATHER AND/OR OBSTRUCTIONS TO VISIBILITY.

WIZ001-002-006>008-014>016-023>028-220700-
NORTHWEST WISCONSIN
  
CITY           SKY/WX    TMP DP  RH WIND       PRES   REMARKS
SUPERIOR ARPT  CLOUDY    38  36  91 NE10G18   30.11S WCI  31          
6HR MIN TEMP:  37; 6HR MAX TEMP:  38;                                

ASHLAND        HVY RAIN  38  38 100 NE12      30.10S FOG     WCI  30  
6HR MIN TEMP:  37; 6HR MAX TEMP:  39; 6HR PCP:  0.43;                

HAYWARD        LGT RAIN  41  40  96 N6        30.05R                  
6HR MIN TEMP:  41; 6HR MAX TEMP:  46; 6HR PCP:  1.10;                

SIREN          CLOUDY    42  40  95 NE12      30.00S                  
CUMBERLAND     FAIR      43  37  81 NE9       29.97S                  
RICE LAKE      MOCLDY    47  40  76 N10       29.97F                  
6HR MIN TEMP:  46; 6HR MAX TEMP:  60;                                

CHETEK         MOCLDY    48  37  64 E10G18    29.95F                  
6HR MIN TEMP:  46; 6HR MAX TEMP:  61;                                

LADYSMITH      MOCLDY    48  38  68 E10       30.00S                  
6HR MIN TEMP:  44; 6HR MAX TEMP:  59;                                

EAU CLAIRE     FAIR      49  36  61 NE13G20   29.93R                  
6HR MIN TEMP:  49; 6HR MAX TEMP:  69;                                

MENOMONIE      FAIR      46  32  57 NE8       29.93S                  
6HR MIN TEMP:  46; 6HR MAX TEMP:  64;                                

NEW RICHMOND   FAIR      47  38  72 NE10      29.94S                  
6HR MIN TEMP:  46; 6HR MAX TEMP:  64;                                

OSCEOLA        FAIR      45  40  82 NE9       29.97F                  
6HR MIN TEMP:  45; 6HR MAX TEMP:  60;                                

$$
 
WIZ003>005-009-010-017-018-220700-
NORTH CENTRAL WISCONSIN
  
CITY           SKY/WX    TMP DP  RH WIND       PRES   REMARKS
MANITOWISH WTR MIX PCPN  39  39 100 E7        30.05F WCI  34          
6HR MIN TEMP:  38; 6HR MAX TEMP:  44; 6HR PCP:  0.52;                

ARBOR VITAE    CLOUDY    42  40  93 SE12      30.04F                  
6HR MIN TEMP:  42; 6HR MAX TEMP:  49; 6HR PCP:  0.08;                

WOODRUFF       CLOUDY    42  40  93 SE12      30.04F                  
6HR MIN TEMP:  42; 6HR MAX TEMP:  49; 6HR PCP:  0.08;                

RHINELANDER    CLOUDY    44  36  73 NE8       30.07R                  
6HR MIN TEMP:  44; 6HR MAX TEMP:  57;                                

EAGLE RIVER    LGT RAIN  40  40  99 NE6       30.08R                  
6HR MIN TEMP:  39; 6HR MAX TEMP:  52;                                

LAND O LAKES   MIX PCPN  40  39  99 CALM      30.10R                  
6HR MIN TEMP:  39; 6HR MAX TEMP:  45; 6HR PCP:  0.43;                

PHILLIPS       CLOUDY    43  40  89 E8        30.00F                  
6HR MIN TEMP:  41; 6HR MAX TEMP:  53;                                

TOMAHAWK       CLOUDY    43  33  66 NE7       30.06R                  
6HR MIN TEMP:  43; 6HR MAX TEMP:  56;                                

MEDFORD        FAIR      46  33  59 NE13      29.99R                  
6HR MIN TEMP:  46; 6HR MAX TEMP:  63;                                

MERRILL        FAIR      46  33  61 NE7       30.02R                  
6HR MIN TEMP:  46; 6HR MAX TEMP:  67;                                

$$
 
WIZ029-030-035-036-043>047-220700-
CENTRAL WISCONSIN
  
CITY           SKY/WX    TMP DP  RH WIND       PRES   REMARKS
WAUSAU         NOT AVBL                                               
MOSINEE        FAIR      50  37  62 NE10      29.99R                  
MARSHFIELD     FAIR      52  40  63 E16       29.95R                  
6HR MIN TEMP:  52; 6HR MAX TEMP:  73;                                

STEVENS POINT  FAIR      49  37  62 E8        29.98R                  
6HR MIN TEMP:  49; 6HR MAX TEMP:  74;                                

WAUPACA        FAIR      53  39  58 N6        29.99R                  
6HR MIN TEMP:  53; 6HR MAX TEMP:  76;                                

WAUTOMA        FAIR      61  45  55 N6        29.96R                  
6HR MIN TEMP:  61; 6HR MAX TEMP:  76;                                

WISC RAPIDS    FAIR      57  40  52 E6        29.95R                  
6HR MIN TEMP:  56; 6HR MAX TEMP:  76;                                

CAMP DOUGLAS   FAIR      67  44  43 S8        29.91R                  
6HR MIN TEMP:  67; 6HR MAX TEMP:  77;                                

$$
 
WIZ011>013-019>022-031-037>040-048>050-220700-
NORTHEAST WISCONSIN
  
CITY           SKY/WX    TMP DP  RH WIND       PRES   REMARKS
ANTIGO         FAIR      44  33  65 E10       30.02S                  
6HR MIN TEMP:  43; 6HR MAX TEMP:  62;                                

SHAWANO        FAIR      49  37  65 NE10      30.03R                  
6HR MIN TEMP:  49; 6HR MAX TEMP:  62;                                

OCONTO         FAIR      44  34  68 NE6       30.04S                  
6HR MIN TEMP:  44; 6HR MAX TEMP:  54;                                

STURGEON BAY   FAIR      43  34  70 CALM      30.04R                  
6HR MIN TEMP:  43; 6HR MAX TEMP:  53;                                

GREEN BAY      FAIR      48  36  63 NE14      30.01R                  
6HR MIN TEMP:  48; 6HR MAX TEMP:  59;                                

MANITOWOC      FAIR      49  38  65 S6        30.01R                  
6HR MIN TEMP:  49; 6HR MAX TEMP:  55; 6HR PCP: TRACE;                

APPLETON       FAIR      50  36  57 N9        29.97S                  
CLINTONVILLE   FAIR      48  36  62 NE13      30.01R                  
6HR MIN TEMP:  48; 6HR MAX TEMP:  64;                                

OSHKOSH        FAIR      59  44  57 S12       29.96R                  
6HR MIN TEMP:  58; 6HR MAX TEMP:  69;                                

$$
 
WIZ032>034-041-042-053>061-220700-
SOUTHWEST WISCONSIN
  
CITY           SKY/WX    TMP DP  RH WIND       PRES   REMARKS
LA CROSSE      FAIR      71  44  37 S16       29.86S                  
6HR MIN TEMP:  71; 6HR MAX TEMP:  79;                                

SPARTA         FAIR      69  45  41 S8        29.90R                  
6HR MIN TEMP:  69; 6HR MAX TEMP:  79;                                

VIROQUA        FAIR      66  46  48 S12       29.92R                  
6HR MIN TEMP:  66; 6HR MAX TEMP:  77;                                

BOSCOBEL       FAIR      69  44  40 S12G20    29.92S                  
6HR MIN TEMP:  69; 6HR MAX TEMP:  82;                                

PRAIRIE DU CHI FAIR      69  41  36 SE7       29.90F                  
6HR MIN TEMP:  69; 6HR MAX TEMP:  80;                                

PLATTEVILLE    FAIR      64  46  53 SE13      29.96S                  
6HR MIN TEMP:  63; 6HR MAX TEMP:  77;                                

$$

WIZ056-057-062-063-064-067-068-220700-
SOUTH CENTRAL WISCONSIN
  
CITY           SKY/WX    TMP DP  RH WIND       PRES   REMARKS
REEDSBURG      FAIR      65  44  46 S12       29.94S                  
6HR MIN TEMP:  65; 6HR MAX TEMP:  78;                                

BARABOO/DELLS  FAIR      64  41  44 S10       29.95S                  
6HR MIN TEMP:  64; 6HR MAX TEMP:  77;                                

LONE ROCK      FAIR      66  44  45 S9        29.94S                  
6HR MIN TEMP:  66; 6HR MAX TEMP:  78;                                

MINERAL POINT  FAIR      63  45  51 SE9       29.96F                  
MADISON        FAIR      63  42  46 S10       29.98R                  
6HR MIN TEMP:  63; 6HR MAX TEMP:  76;                                

MIDDLETON      FAIR      65  42  43 S9        29.99R                  
6HR MIN TEMP:  64; 6HR MAX TEMP:  78;                                

WATERTOWN      FAIR      64  42  45 S13       29.98S                  
6HR MIN TEMP:  63; 6HR MAX TEMP:  73;                                

MONROE         FAIR      61  41  48 MISG      29.99S                  
6HR MIN TEMP:  61; 6HR MAX TEMP:  75;                                

JANESVILLE     FAIR      63  39  42 S9        30.01R                  
$$
 
WIZ051-052-058>065-066-070>072-220700-
SOUTHEAST WISCONSIN
  
CITY           SKY/WX    TMP DP  RH WIND       PRES   REMARKS
MILWAUKEE      MOCLDY    60  38  43 S12       30.00F                  
6HR MIN TEMP:  59; 6HR MAX TEMP:  67;                                

WAUKESHA       FAIR      61  37  41 S8        30.01S                  
MILWAUKEE/TIMM FAIR      61  32  33 S7        30.00F                  
RACINE         FAIR      56  38  50 S13       30.04S                  
6HR MIN TEMP:  53; 6HR MAX TEMP:  59;                                

KENOSHA        FAIR      61  40  45 SE6       30.02S                  
6HR MIN TEMP:  60; 6HR MAX TEMP:  67;                                

FOND DU LAC    FAIR      62  44  51 S9        29.97R                  
6HR MIN TEMP:  60; 6HR MAX TEMP:  70;                                

SHEBOYGAN      FAIR      50  38  63 S8        30.00R                  
6HR MIN TEMP:  50; 6HR MAX TEMP:  61;                                

WEST BEND      FAIR      61  36  39 SE5       30.00R                  
JUNEAU         FAIR      61  42  49 S9        29.99R                  
6HR MIN TEMP:  61; 6HR MAX TEMP:  72;                                

$$

LSZ147-162-220700-
LAKE SUPERIOR
  
STATION/POSITION TIME  TEMP    WIND        PRES    WAVE
                       AIR SEA DIR/SP/G            HT/PER
                 (UTC) (F)     (DEG/KT/KT) (MB)    (FT/S)
$$
 
LMZ867-665-643>646-220700-
LAKE MICHIGAN
  
STATION/POSITION TIME  TEMP    WIND        PRES    WAVE
                       AIR SEA DIR/SP/G            HT/PER
                 (UTC) (F)     (DEG/KT/KT) (MB)    (FT/S)
NORTHPORT PIER   0540   38     330/  2/  3 1018.3R
KEWAUNEE LAKESHO 0536          180/ 10/ 12 1015.1R
SHEBOYGAN LAKESH 0600   45     170/ 19/ 21 1016.1S
MILWAUKEE LAKESH 0550   47